Time,TemperatureF,DewpointF,PressureIn,WindDirection,WindDirectionDegrees,WindSpeedMPH,WindSpeedGustMPH,Humidity,HourlyPrecipIn,Conditions,Clouds,dailyrainin,SoftwareType,DateUTC
2013-01-22 00:00:00,21.5,20.7,29.76,SE,128,0.0,0.0,97,0.00,,,0.00,WUHU216PEETBRO,2013-01-22 05:00:00,
2013-01-22 00:01:00,21.1,20.3,29.76,SE,128,0.0,0.0,97,0.00,,,0.00,WUHU216PEETBRO,2013-01-22 05:01:00,
2013-01-22 00:03:00,21.4,20.6,29.76,SE,128,0.0,0.0,97,0.00,,,0.00,WUHU216PEETBRO,2013-01-22 05:03:00,
2013-01-22 00:08:00,20.9,20.1,29.76,SE,128,0.0,0.0,97,0.00,,,0.00,WUHU216PEETBRO,2013-01-22 05:08:00,
2013-01-22 00:13:00,21.5,20.7,29.76,SE,128,0.0,0.0,97,0.00,,,0.00,WUHU216PEETBRO,2013-01-22 05:13:00,
2013-01-22 00:18:00,21.4,20.6,29.76,SE,128,0.0,0.0,97,0.00,,,0.00,WUHU216PEETBRO,2013-01-22 05:18:00,
2013-01-22 00:23:00,21.6,20.8,29.76,SE,128,0.0,0.0,97,0.00,,,0.00,WUHU216PEETBRO,2013-01-22 05:23:00,
2013-01-22 00:28:00,21.2,20.4,29.76,SE,128,0.0,0.0,97,0.00,,,0.00,WUHU216PEETBRO,2013-01-22 05:28:00,
2013-01-22 00:33:00,21.0,20.2,29.76,SE,128,0.0,0.0,97,0.00,,,0.00,WUHU216PEETBRO,2013-01-22 05:33:00,
2013-01-22 00:38:00,21.6,20.9,29.75,SE,128,0.0,0.0,97,0.00,,,0.00,WUHU216PEETBRO,2013-01-22 05:38:00,
2013-01-22 00:43:00,21.3,20.6,29.75,SE,128,0.0,0.0,97,0.00,,,0.00,WUHU216PEETBRO,2013-01-22 05:43:00,
2013-01-22 00:48:00,21.5,20.7,29.74,NNE,16,2.0,3.9,97,0.00,,,0.00,WUHU216PEETBRO,2013-01-22 05:48:00,
2013-01-22 00:53:00,21.1,20.4,29.73,NE,53,0.9,5.1,97,0.00,,,0.00,WUHU216PEETBRO,2013-01-22 05:53:00,
2013-01-22 00:58:00,21.5,20.7,29.73,North,5,1.0,5.3,97,0.00,,,0.00,WUHU216PEETBRO,2013-01-22 05:58:00,
2013-01-22 01:03:00,21.0,20.2,29.75,North,358,3.8,5.3,97,0.00,,,0.00,WUHU216PEETBRO,2013-01-22 06:03:00,
2013-01-22 01:08:00,20.8,20.0,29.75,NNW,344,1.9,4.3,97,0.00,,,0.00,WUHU216PEETBRO,2013-01-22 06:08:00,
2013-01-22 01:13:00,21.5,20.7,29.75,NNW,331,0.0,4.3,97,0.00,,,0.00,WUHU216PEETBRO,2013-01-22 06:13:00,
2013-01-22 01:18:00,21.0,20.2,29.74,NNW,344,1.1,5.5,97,0.00,,,0.00,WUHU216PEETBRO,2013-01-22 06:18:00,
2013-01-22 01:23:00,21.7,20.9,29.74,NNE,13,1.1,5.5,97,0.00,,,0.00,WUHU216PEETBRO,2013-01-22 06:23:00,
2013-01-22 01:28:00,21.4,20.6,29.73,NNW,345,0.8,3.8,97,0.00,,,0.00,WUHU216PEETBRO,2013-01-22 06:28:00,
2013-01-22 01:33:00,21.5,20.6,29.73,NNW,337,0.0,3.7,97,0.00,,,0.00,WUHU216PEETBRO,2013-01-22 06:33:00,
2013-01-22 01:38:00,21.5,20.6,29.73,North,6,2.2,3.0,97,0.00,,,0.00,WUHU216PEETBRO,2013-01-22 06:38:00,
2013-01-22 01:43:00,20.9,20.0,29.74,North,5,1.9,3.1,97,0.00,,,0.00,WUHU216PEETBRO,2013-01-22 06:43:00,
2013-01-22 01:48:00,21.4,20.5,29.74,North,2,0.0,3.1,96,0.00,,,0.00,WUHU216PEETBRO,2013-01-22 06:48:00,
2013-01-22 01:53:00,21.5,20.6,29.75,NNW,340,0.0,2.5,96,0.00,,,0.00,WUHU216PEETBRO,2013-01-22 06:53:00,
2013-01-22 01:58:00,21.7,20.7,29.75,NNW,334,0.0,1.5,96,0.00,,,0.00,WUHU216PEETBRO,2013-01-22 06:58:00,
2013-01-22 02:03:00,20.9,20.0,29.74,North,359,1.1,2.5,96,0.00,,,0.00,WUHU216PEETBRO,2013-01-22 07:03:00,
2013-01-22 02:08:00,21.1,20.1,29.74,North,357,0.0,2.5,96,0.00,,,0.00,WUHU216PEETBRO,2013-01-22 07:08:00,
2013-01-22 02:13:00,20.6,19.6,29.74,North,357,0.0,1.1,96,0.00,,,0.00,WUHU216PEETBRO,2013-01-22 07:13:00,
2013-01-22 02:18:00,20.3,19.4,29.74,North,357,0.0,0.0,96,0.00,,,0.00,WUHU216PEETBRO,2013-01-22 07:18:00,
2013-01-22 02:23:00,20.2,19.3,29.74,North,357,0.0,0.0,96,0.00,,,0.00,WUHU216PEETBRO,2013-01-22 07:23:00,
2013-01-22 02:28:00,20.0,19.1,29.74,North,357,0.0,0.0,96,0.00,,,0.00,WUHU216PEETBRO,2013-01-22 07:28:00,
2013-01-22 02:33:00,19.5,18.6,29.74,North,357,0.0,0.0,97,0.00,,,0.00,WUHU216PEETBRO,2013-01-22 07:33:00,
2013-01-22 02:38:00,19.6,18.7,29.74,North,357,0.0,0.0,96,0.00,,,0.00,WUHU216PEETBRO,2013-01-22 07:38:00,
2013-01-22 02:43:00,19.4,18.5,29.74,North,357,0.0,0.0,96,0.00,,,0.00,WUHU216PEETBRO,2013-01-22 07:43:00,
2013-01-22 02:48:00,18.9,18.0,29.74,North,357,0.0,0.0,96,0.00,,,0.00,WUHU216PEETBRO,2013-01-22 07:48:00,
2013-01-22 02:53:00,17.8,17.0,29.74,North,357,0.0,0.0,97,0.00,,,0.00,WUHU216PEETBRO,2013-01-22 07:53:00,
2013-01-22 02:58:00,18.1,17.4,29.73,North,357,0.0,0.0,97,0.00,,,0.00,WUHU216PEETBRO,2013-01-22 07:58:00,
2013-01-22 03:03:00,18.1,17.4,29.73,North,357,0.0,0.0,97,0.00,,,0.00,WUHU216PEETBRO,2013-01-22 08:03:00,
2013-01-22 03:08:00,18.1,17.4,29.73,North,357,0.0,0.0,97,0.00,,,0.00,WUHU216PEETBRO,2013-01-22 08:08:00,
2013-01-22 03:13:00,18.1,17.4,29.73,North,357,0.0,0.0,97,0.00,,,0.00,WUHU216PEETBRO,2013-01-22 08:13:00,
2013-01-22 03:18:00,17.9,17.2,29.73,North,357,0.0,0.0,97,0.00,,,0.00,WUHU216PEETBRO,2013-01-22 08:18:00,
2013-01-22 03:23:00,17.9,17.3,29.73,NNW,347,1.4,2.0,98,0.00,,,0.00,WUHU216PEETBRO,2013-01-22 08:23:00,
2013-01-22 03:28:00,18.1,17.5,29.72,North,6,0.0,2.2,97,0.00,,,0.00,WUHU216PEETBRO,2013-01-22 08:28:00,
2013-01-22 03:33:00,18.4,17.8,29.73,NNW,342,1.0,2.2,98,0.00,,,0.00,WUHU216PEETBRO,2013-01-22 08:33:00,
2013-01-22 03:38:00,18.0,17.5,29.73,NNW,337,1.2,2.7,98,0.00,,,0.00,WUHU216PEETBRO,2013-01-22 08:38:00,
2013-01-22 03:43:00,18.4,17.9,29.73,NNW,331,1.1,2.7,98,0.00,,,0.00,WUHU216PEETBRO,2013-01-22 08:43:00,
2013-01-22 03:48:00,18.6,18.0,29.73,NNW,333,0.9,2.4,98,0.00,,,0.00,WUHU216PEETBRO,2013-01-22 08:48:00,
2013-01-22 03:53:00,18.7,18.2,29.73,NNW,342,0.0,2.1,98,0.00,,,0.00,WUHU216PEETBRO,2013-01-22 08:53:00,
2013-01-22 03:58:00,18.6,18.1,29.73,NNW,345,0.9,2.5,98,0.00,,,0.00,WUHU216PEETBRO,2013-01-22 08:58:00,
2013-01-22 04:03:00,18.6,18.0,29.73,NNW,344,1.3,3.4,98,0.00,,,0.00,WUHU216PEETBRO,2013-01-22 09:03:00,
2013-01-22 04:08:00,18.8,18.3,29.73,NNW,345,1.9,3.9,98,0.00,,,0.00,WUHU216PEETBRO,2013-01-22 09:08:00,
2013-01-22 04:13:00,19.4,18.8,29.73,NNW,341,0.9,3.9,98,0.00,,,0.00,WUHU216PEETBRO,2013-01-22 09:13:00,
2013-01-22 04:18:00,19.1,18.5,29.73,NNW,331,0.0,3.5,98,0.00,,,0.00,WUHU216PEETBRO,2013-01-22 09:18:00,
2013-01-22 04:23:00,19.2,18.6,29.73,NW,314,0.0,2.7,98,0.00,,,0.00,WUHU216PEETBRO,2013-01-22 09:23:00,
2013-01-22 04:28:00,19.4,18.8,29.73,NNW,344,0.9,2.7,98,0.00,,,0.00,WUHU216PEETBRO,2013-01-22 09:28:00,
2013-01-22 04:33:00,19.5,18.8,29.73,NNW,328,0.0,3.6,97,0.00,,,0.00,WUHU216PEETBRO,2013-01-22 09:33:00,
2013-01-22 04:38:00,18.9,18.2,29.73,NNW,347,0.6,3.6,97,0.00,,,0.00,WUHU216PEETBRO,2013-01-22 09:38:00,
2013-01-22 04:43:00,19.1,18.4,29.72,NNW,331,0.0,3.3,97,0.00,,,0.00,WUHU216PEETBRO,2013-01-22 09:43:00,
2013-01-22 04:48:00,18.9,18.1,29.72,NNW,331,0.0,1.3,97,0.00,,,0.00,WUHU216PEETBRO,2013-01-22 09:48:00,
2013-01-22 04:53:00,18.4,17.7,29.72,NNW,337,0.0,2.1,97,0.00,,,0.00,WUHU216PEETBRO,2013-01-22 09:53:00,
2013-01-22 04:58:00,18.0,17.2,29.72,NW,323,0.0,2.2,97,0.00,,,0.00,WUHU216PEETBRO,2013-01-22 09:58:00,
2013-01-22 05:03:00,17.5,16.8,29.72,NW,323,0.0,2.2,97,0.00,,,0.00,WUHU216PEETBRO,2013-01-22 10:03:00,
2013-01-22 05:08:00,17.6,17.0,29.72,NW,323,0.0,0.0,98,0.00,,,0.00,WUHU216PEETBRO,2013-01-22 10:08:00,
2013-01-22 05:13:00,16.9,16.3,29.72,NNW,333,0.0,1.2,98,0.00,,,0.00,WUHU216PEETBRO,2013-01-22 10:13:00,
2013-01-22 05:18:00,17.1,16.4,29.72,NNW,333,0.0,1.2,97,0.00,,,0.00,WUHU216PEETBRO,2013-01-22 10:18:00,
2013-01-22 05:23:00,16.1,15.5,29.72,NNW,333,0.0,0.0,98,0.00,,,0.00,WUHU216PEETBRO,2013-01-22 10:23:00,
2013-01-22 05:28:00,16.9,16.3,29.73,NNW,333,0.0,0.0,98,0.00,,,0.00,WUHU216PEETBRO,2013-01-22 10:28:00,
2013-01-22 05:33:00,16.7,16.2,29.73,NNW,333,0.0,0.0,98,0.00,,,0.00,WUHU216PEETBRO,2013-01-22 10:33:00,
2013-01-22 05:38:00,16.3,15.7,29.73,NNW,333,0.0,0.0,98,0.00,,,0.00,WUHU216PEETBRO,2013-01-22 10:38:00,
2013-01-22 05:43:00,15.9,15.3,29.73,NNW,333,0.0,0.0,98,0.00,,,0.00,WUHU216PEETBRO,2013-01-22 10:43:00,
2013-01-22 05:48:00,16.0,15.4,29.73,NNW,333,0.0,0.0,97,0.00,,,0.00,WUHU216PEETBRO,2013-01-22 10:48:00,
2013-01-22 05:53:00,15.6,15.0,29.73,NNW,333,0.0,0.0,98,0.00,,,0.00,WUHU216PEETBRO,2013-01-22 10:53:00,
2013-01-22 05:58:00,15.0,14.3,29.73,NNW,333,0.0,0.0,97,0.00,,,0.00,WUHU216PEETBRO,2013-01-22 10:58:00,
2013-01-22 06:03:00,15.0,14.4,29.73,NNW,341,1.3,1.9,98,0.00,,,0.00,WUHU216PEETBRO,2013-01-22 11:03:00,
2013-01-22 06:08:00,15.3,14.8,29.73,NW,320,0.0,2.1,98,0.00,,,0.00,WUHU216PEETBRO,2013-01-22 11:08:00,
2013-01-22 06:13:00,14.7,14.1,29.73,NNW,327,0.0,3.8,98,0.00,,,0.00,WUHU216PEETBRO,2013-01-22 11:13:00,
2013-01-22 06:18:00,15.6,15.0,29.73,NNW,327,0.0,3.8,97,0.00,,,0.00,WUHU216PEETBRO,2013-01-22 11:18:00,
2013-01-22 06:23:00,14.7,14.1,29.74,NNW,348,2.1,3.5,97,0.00,,,0.00,WUHU216PEETBRO,2013-01-22 11:23:00,
2013-01-22 06:28:00,14.8,14.2,29.74,NNW,341,1.6,4.0,97,0.00,,,0.00,WUHU216PEETBRO,2013-01-22 11:28:00,
2013-01-22 06:33:00,13.9,13.3,29.74,NNW,338,2.6,4.2,98,0.00,,,0.00,WUHU216PEETBRO,2013-01-22 11:33:00,
2013-01-22 06:38:00,14.8,14.2,29.74,NNW,335,1.5,4.2,98,0.00,,,0.00,WUHU216PEETBRO,2013-01-22 11:38:00,
2013-01-22 06:43:00,14.7,14.2,29.75,NNW,331,2.0,6.7,98,0.00,,,0.00,WUHU216PEETBRO,2013-01-22 11:43:00,
2013-01-22 06:48:00,16.0,15.6,29.75,NNW,337,2.4,7.7,98,0.00,,,0.00,WUHU216PEETBRO,2013-01-22 11:48:00,
2013-01-22 06:53:00,16.4,15.9,29.75,North,350,4.6,7.7,98,0.00,,,0.00,WUHU216PEETBRO,2013-01-22 11:53:00,
2013-01-22 06:58:00,16.1,15.6,29.75,NNW,341,1.2,5.2,98,0.00,,,0.00,WUHU216PEETBRO,2013-01-22 11:58:00,
2013-01-22 07:03:00,16.7,16.1,29.75,North,351,0.0,5.2,98,0.00,,,0.00,WUHU216PEETBRO,2013-01-22 12:03:00,
2013-01-22 07:08:00,15.2,14.5,29.75,North,351,0.0,4.5,97,0.00,,,0.00,WUHU216PEETBRO,2013-01-22 12:08:00,
2013-01-22 07:13:00,15.3,14.5,29.75,North,351,0.0,0.0,97,0.00,,,0.00,WUHU216PEETBRO,2013-01-22 12:13:00,
2013-01-22 07:18:00,15.4,14.7,29.75,North,351,0.0,0.0,97,0.00,,,0.00,WUHU216PEETBRO,2013-01-22 12:18:00,
2013-01-22 07:23:00,14.9,14.1,29.75,North,351,0.0,0.0,97,0.00,,,0.00,WUHU216PEETBRO,2013-01-22 12:23:00,
2013-01-22 07:28:00,14.8,14.0,29.76,North,351,0.0,0.0,97,0.00,,,0.00,WUHU216PEETBRO,2013-01-22 12:28:00,
2013-01-22 07:33:00,14.9,14.1,29.76,North,351,0.0,0.0,97,0.00,,,0.00,WUHU216PEETBRO,2013-01-22 12:33:00,
2013-01-22 07:38:00,13.9,13.1,29.76,North,351,0.0,0.0,97,0.00,,,0.00,WUHU216PEETBRO,2013-01-22 12:38:00,
2013-01-22 07:43:00,13.7,12.9,29.77,NE,36,0.8,3.9,97,0.00,,,0.00,WUHU216PEETBRO,2013-01-22 12:43:00,
2013-01-22 07:48:00,14.4,13.7,29.77,North,355,4.8,4.8,97,0.00,,,0.00,WUHU216PEETBRO,2013-01-22 12:48:00,
2013-01-22 07:53:00,14.6,13.9,29.77,North,8,1.7,4.8,97,0.00,,,0.00,WUHU216PEETBRO,2013-01-22 12:53:00,
2013-01-22 07:58:00,14.8,14.1,29.78,NNE,21,3.2,4.8,97,0.00,,,0.00,WUHU216PEETBRO,2013-01-22 12:58:00,
2013-01-22 08:04:00,15.5,14.8,29.78,North,6,0.4,4.5,97,0.00,,,0.00,WUHU216PEETBRO,2013-01-22 13:04:00,
2013-01-22 08:09:00,15.7,14.9,29.78,North,8,0.0,3.2,97,0.00,,,0.00,WUHU216PEETBRO,2013-01-22 13:09:00,
2013-01-22 08:14:00,15.9,15.1,29.78,North,11,0.4,3.3,97,0.00,,,0.00,WUHU216PEETBRO,2013-01-22 13:14:00,
2013-01-22 08:19:00,15.7,14.9,29.78,North,6,0.7,4.8,97,0.00,,,0.00,WUHU216PEETBRO,2013-01-22 13:19:00,
2013-01-22 08:24:00,15.9,15.2,29.78,North,5,0.0,4.8,97,0.00,,,0.00,WUHU216PEETBRO,2013-01-22 13:24:00,
2013-01-22 08:29:00,17.0,16.2,29.79,NNE,15,2.7,2.7,97,0.00,,,0.00,WUHU216PEETBRO,2013-01-22 13:29:00,
2013-01-22 08:34:00,16.6,15.8,29.79,NNE,26,0.4,4.8,97,0.00,,,0.00,WUHU216PEETBRO,2013-01-22 13:34:00,
2013-01-22 08:39:00,17.6,16.8,29.79,NNE,23,3.2,4.8,97,0.00,,,0.00,WUHU216PEETBRO,2013-01-22 13:39:00,
2013-01-22 08:44:00,17.4,16.6,29.79,NNE,33,3.0,4.8,97,0.00,,,0.00,WUHU216PEETBRO,2013-01-22 13:44:00,
2013-01-22 08:49:00,18.3,17.4,29.80,NNW,344,2.1,5.4,96,0.00,,,0.00,WUHU216PEETBRO,2013-01-22 13:49:00,
2013-01-22 08:54:00,18.4,17.4,29.80,NNE,22,0.0,5.4,96,0.00,,,0.00,WUHU216PEETBRO,2013-01-22 13:54:00,
2013-01-22 08:59:00,18.2,17.2,29.80,NW,324,0.0,4.6,96,0.00,,,0.00,WUHU216PEETBRO,2013-01-22 13:59:00,
2013-01-22 09:04:00,18.6,17.6,29.80,NNW,334,2.6,6.6,96,0.00,,,0.00,WUHU216PEETBRO,2013-01-22 14:04:00,
2013-01-22 09:09:00,18.7,17.7,29.80,North,349,4.2,9.6,96,0.00,,,0.00,WUHU216PEETBRO,2013-01-22 14:09:00,
2013-01-22 09:14:00,18.5,17.4,29.80,North,349,8.1,9.6,95,0.00,,,0.00,WUHU216PEETBRO,2013-01-22 14:14:00,
2013-01-22 09:19:00,19.7,17.9,29.80,North,350,4.7,13.4,93,0.00,,,0.00,WUHU216PEETBRO,2013-01-22 14:19:00,
2013-01-22 09:24:00,19.7,17.3,29.80,NE,52,5.6,13.9,91,0.00,,,0.00,WUHU216PEETBRO,2013-01-22 14:24:00,
2013-01-22 09:29:00,20.0,16.8,29.80,NNW,334,7.0,13.9,88,0.00,,,0.00,WUHU216PEETBRO,2013-01-22 14:29:00,
2013-01-22 09:34:00,20.3,17.1,29.80,North,351,0.0,13.0,87,0.00,,,0.00,WUHU216PEETBRO,2013-01-22 14:34:00,
2013-01-22 09:39:00,19.6,15.4,29.80,North,354,8.0,17.8,84,0.00,,,0.00,WUHU216PEETBRO,2013-01-22 14:39:00,
2013-01-22 09:44:00,20.6,15.7,29.80,North,4,7.1,17.8,81,0.00,,,0.00,WUHU216PEETBRO,2013-01-22 14:44:00,
2013-01-22 09:49:00,20.4,15.7,29.80,North,351,8.8,15.5,82,0.00,,,0.00,WUHU216PEETBRO,2013-01-22 14:49:00,
2013-01-22 09:54:00,21.1,15.6,29.80,North,352,3.1,14.2,79,0.00,,,0.00,WUHU216PEETBRO,2013-01-22 14:54:00,
2013-01-22 09:59:00,20.9,14.9,29.81,North,349,4.5,15.3,77,0.00,,,0.00,WUHU216PEETBRO,2013-01-22 14:59:00,
2013-01-22 10:04:00,21.0,15.0,29.80,NW,323,4.3,15.3,77,0.00,,,0.00,WUHU216PEETBRO,2013-01-22 15:04:00,
2013-01-22 10:09:00,21.6,14.8,29.81,NNE,18,12.7,20.1,75,0.00,,,0.00,WUHU216PEETBRO,2013-01-22 15:09:00,
2013-01-22 10:14:00,21.5,14.5,29.81,NNW,342,11.5,22.1,74,0.00,,,0.00,WUHU216PEETBRO,2013-01-22 15:14:00,
2013-01-22 10:19:00,21.3,13.7,29.81,NNW,334,14.4,22.1,72,0.00,,,0.00,WUHU216PEETBRO,2013-01-22 15:19:00,
2013-01-22 10:24:00,21.6,13.4,29.81,NW,314,0.6,20.5,70,0.00,,,0.00,WUHU216PEETBRO,2013-01-22 15:24:00,
2013-01-22 10:29:00,21.4,12.4,29.81,North,11,6.2,20.5,68,0.00,,,0.00,WUHU216PEETBRO,2013-01-22 15:29:00,
2013-01-22 10:34:00,22.0,13.4,29.81,NNW,335,5.2,15.7,69,0.00,,,0.00,WUHU216PEETBRO,2013-01-22 15:34:00,
2013-01-22 10:39:00,22.3,13.6,29.81,NNW,341,12.9,19.1,69,0.00,,,0.00,WUHU216PEETBRO,2013-01-22 15:39:00,
2013-01-22 10:44:00,21.9,13.3,29.81,NNW,348,8.3,19.1,69,0.00,,,0.00,WUHU216PEETBRO,2013-01-22 15:44:00,
2013-01-22 10:49:00,22.1,12.4,29.81,NNW,328,17.5,18.6,66,0.00,,,0.00,WUHU216PEETBRO,2013-01-22 15:49:00,
2013-01-22 10:54:00,21.8,11.1,29.81,NW,325,8.0,21.3,63,0.00,,,0.00,WUHU216PEETBRO,2013-01-22 15:54:00,
2013-01-22 10:59:00,22.6,11.6,29.81,NW,323,7.5,21.3,62,0.00,,,0.00,WUHU216PEETBRO,2013-01-22 15:59:00,
2013-01-22 11:04:00,22.4,9.7,29.81,NNW,327,6.0,20.9,58,0.00,,,0.00,WUHU216PEETBRO,2013-01-22 16:04:00,
2013-01-22 11:09:00,22.1,8.5,29.81,NNW,328,5.9,23.2,55,0.00,,,0.00,WUHU216PEETBRO,2013-01-22 16:09:00,
2013-01-22 11:14:00,22.0,8.6,29.80,NNW,337,3.5,23.2,56,0.00,,,0.00,WUHU216PEETBRO,2013-01-22 16:14:00,
2013-01-22 11:19:00,21.8,7.7,29.80,NNW,342,7.8,21.9,54,0.00,,,0.00,WUHU216PEETBRO,2013-01-22 16:19:00,
2013-01-22 11:24:00,21.5,6.2,29.80,NNW,347,11.2,21.9,51,0.00,,,0.00,WUHU216PEETBRO,2013-01-22 16:24:00,
2013-01-22 11:29:00,21.7,6.1,29.80,NNW,327,10.6,19.6,51,0.00,,,0.00,WUHU216PEETBRO,2013-01-22 16:29:00,
2013-01-22 11:34:00,22.3,7.2,29.80,North,359,14.3,19.8,52,0.00,,,0.00,WUHU216PEETBRO,2013-01-22 16:34:00,
2013-01-22 11:39:00,22.2,5.6,29.80,NNW,338,6.4,23.9,48,0.00,,,0.00,WUHU216PEETBRO,2013-01-22 16:39:00,
2013-01-22 11:44:00,21.6,5.7,29.80,NNW,348,16.1,23.9,50,0.00,,,0.00,WUHU216PEETBRO,2013-01-22 16:44:00,
2013-01-22 11:49:00,21.8,6.2,29.80,North,2,12.1,17.6,51,0.00,,,0.00,WUHU216PEETBRO,2013-01-22 16:49:00,
2013-01-22 11:54:00,21.7,6.1,29.79,NNW,337,0.0,18.9,51,0.00,,,0.00,WUHU216PEETBRO,2013-01-22 16:54:00,
2013-01-22 11:59:00,22.3,6.7,29.79,NNW,330,4.8,18.9,51,0.00,,,0.00,WUHU216PEETBRO,2013-01-22 16:59:00,
2013-01-22 12:04:00,22.6,7.1,29.79,North,2,10.1,16.0,51,0.00,,,0.00,WUHU216PEETBRO,2013-01-22 17:04:00,
2013-01-22 12:09:00,22.6,7.5,29.79,NNW,338,1.7,17.1,52,0.00,,,0.00,WUHU216PEETBRO,2013-01-22 17:09:00,
2013-01-22 12:14:00,22.7,6.7,29.79,North,8,4.6,18.5,50,0.00,,,0.00,WUHU216PEETBRO,2013-01-22 17:14:00,
2013-01-22 12:19:00,23.6,7.9,29.79,NNW,337,3.2,18.5,51,0.00,,,0.00,WUHU216PEETBRO,2013-01-22 17:19:00,
2013-01-22 12:24:00,24.3,7.7,29.79,NNW,348,4.7,16.7,49,0.00,,,0.00,WUHU216PEETBRO,2013-01-22 17:24:00,
2013-01-22 12:29:00,24.5,8.1,29.79,NW,317,6.0,18.1,49,0.00,,,0.00,WUHU216PEETBRO,2013-01-22 17:29:00,
2013-01-22 12:34:00,24.6,7.7,29.79,NNW,337,4.8,18.1,48,0.00,,,0.00,WUHU216PEETBRO,2013-01-22 17:34:00,
2013-01-22 12:39:00,23.9,7.5,29.79,NNW,327,10.6,19.6,49,0.00,,,0.00,WUHU216PEETBRO,2013-01-22 17:39:00,
2013-01-22 12:44:00,24.2,8.2,29.79,North,352,5.3,19.6,50,0.00,,,0.00,WUHU216PEETBRO,2013-01-22 17:44:00,
2013-01-22 12:49:00,24.0,7.7,29.79,NW,321,5.0,16.2,50,0.00,,,0.00,WUHU216PEETBRO,2013-01-22 17:49:00,
2013-01-22 12:54:00,23.3,6.7,29.79,NW,318,11.4,14.2,49,0.00,,,0.00,WUHU216PEETBRO,2013-01-22 17:54:00,
2013-01-22 12:59:00,22.4,7.2,29.79,NW,318,3.9,14.9,52,0.00,,,0.00,WUHU216PEETBRO,2013-01-22 17:59:00,
2013-01-22 13:04:00,22.7,8.1,29.79,NNW,342,5.8,14.9,53,0.00,,,0.00,WUHU216PEETBRO,2013-01-22 18:04:00,
2013-01-22 13:09:00,22.3,7.6,29.79,NNW,331,5.5,13.2,53,0.00,,,0.00,WUHU216PEETBRO,2013-01-22 18:09:00,
2013-01-22 13:14:00,22.3,6.2,29.80,North,349,6.8,18.9,50,0.00,,,0.00,WUHU216PEETBRO,2013-01-22 18:14:00,
2013-01-22 13:19:00,22.3,5.6,29.80,North,354,18.5,21.1,48,0.00,,,0.00,WUHU216PEETBRO,2013-01-22 18:19:00,
2013-01-22 13:24:00,22.9,5.5,29.80,NNW,327,7.4,21.1,47,0.00,,,0.00,WUHU216PEETBRO,2013-01-22 18:24:00,
2013-01-22 13:29:00,22.9,5.6,29.80,NNW,331,6.3,19.0,47,0.00,,,0.00,WUHU216PEETBRO,2013-01-22 18:29:00,
2013-01-22 13:34:00,22.7,5.7,29.80,NNW,334,8.7,19.0,48,0.00,,,0.00,WUHU216PEETBRO,2013-01-22 18:34:00,
2013-01-22 13:39:00,22.9,6.5,29.80,NNW,330,7.0,17.3,49,0.00,,,0.00,WUHU216PEETBRO,2013-01-22 18:39:00,
2013-01-22 13:44:00,22.4,6.0,29.80,NNW,348,8.5,14.0,49,0.00,,,0.00,WUHU216PEETBRO,2013-01-22 18:44:00,
2013-01-22 13:49:00,22.6,5.9,29.80,NW,323,7.6,19.4,48,0.00,,,0.00,WUHU216PEETBRO,2013-01-22 18:49:00,
2013-01-22 13:54:00,22.1,4.9,29.80,NNW,335,4.0,22.4,47,0.00,,,0.00,WUHU216PEETBRO,2013-01-22 18:54:00,
2013-01-22 13:59:00,22.6,5.9,29.81,NNW,340,8.0,22.4,48,0.00,,,0.00,WUHU216PEETBRO,2013-01-22 18:59:00,
2013-01-22 14:04:00,22.3,5.8,29.81,NNW,335,4.5,17.8,49,0.00,,,0.00,WUHU216PEETBRO,2013-01-22 19:04:00,
2013-01-22 14:09:00,22.3,5.2,29.81,NNW,335,7.3,23.4,47,0.00,,,0.00,WUHU216PEETBRO,2013-01-22 19:09:00,
2013-01-22 14:14:00,22.5,5.6,29.81,NNW,333,12.9,23.4,48,0.00,,,0.00,WUHU216PEETBRO,2013-01-22 19:14:00,
2013-01-22 14:19:00,22.6,6.5,29.82,NNW,344,6.0,20.5,50,0.00,,,0.00,WUHU216PEETBRO,2013-01-22 19:19:00,
2013-01-22 14:24:00,22.9,6.4,29.82,NNW,327,6.0,14.2,49,0.00,,,0.00,WUHU216PEETBRO,2013-01-22 19:24:00,
2013-01-22 14:29:00,22.2,5.7,29.82,NNW,333,14.8,16.5,49,0.00,,,0.00,WUHU216PEETBRO,2013-01-22 19:29:00,
2013-01-22 14:34:00,22.3,5.6,29.82,NNW,334,6.0,18.9,48,0.00,,,0.00,WUHU216PEETBRO,2013-01-22 19:34:00,
2013-01-22 14:39:00,22.1,4.4,29.83,NW,325,1.2,18.9,46,0.00,,,0.00,WUHU216PEETBRO,2013-01-22 19:39:00,
2013-01-22 14:44:00,21.7,3.3,29.83,NNW,342,6.3,21.5,45,0.00,,,0.00,WUHU216PEETBRO,2013-01-22 19:44:00,
2013-01-22 14:49:00,21.5,4.1,29.83,NNW,335,4.8,21.5,47,0.00,,,0.00,WUHU216PEETBRO,2013-01-22 19:49:00,
2013-01-22 14:54:00,21.8,5.1,29.83,NNW,330,7.8,17.3,48,0.00,,,0.00,WUHU216PEETBRO,2013-01-22 19:54:00,
2013-01-22 14:59:00,21.2,3.5,29.84,NNW,335,10.8,16.4,46,0.00,,,0.00,WUHU216PEETBRO,2013-01-22 19:59:00,
2013-01-22 15:04:00,21.4,4.4,29.84,NNW,341,3.8,19.2,48,0.00,,,0.00,WUHU216PEETBRO,2013-01-22 20:04:00,
2013-01-22 15:09:00,21.2,4.3,29.84,NNW,347,2.7,19.2,48,0.00,,,0.00,WUHU216PEETBRO,2013-01-22 20:09:00,
2013-01-22 15:14:00,20.9,2.8,29.85,NNW,347,8.3,19.8,45,0.00,,,0.00,WUHU216PEETBRO,2013-01-22 20:14:00,
2013-01-22 15:19:00,21.1,3.3,29.85,NNW,340,9.8,20.9,46,0.00,,,0.00,WUHU216PEETBRO,2013-01-22 20:19:00,
2013-01-22 15:24:00,20.8,2.9,29.85,NNW,347,1.9,20.9,46,0.00,,,0.00,WUHU216PEETBRO,2013-01-22 20:24:00,
2013-01-22 15:29:00,20.8,3.8,29.85,WNW,303,0.0,18.9,47,0.00,,,0.00,WUHU216PEETBRO,2013-01-22 20:29:00,
2013-01-22 15:34:00,20.5,2.0,29.86,NNW,331,9.1,18.5,44,0.00,,,0.00,WUHU216PEETBRO,2013-01-22 20:34:00,
2013-01-22 15:39:00,19.9,0.2,29.86,North,352,7.7,21.2,42,0.00,,,0.00,WUHU216PEETBRO,2013-01-22 20:39:00,
2013-01-22 15:44:00,20.7,1.8,29.86,North,2,0.0,21.2,44,0.00,,,0.00,WUHU216PEETBRO,2013-01-22 20:44:00,
2013-01-22 15:49:00,20.5,2.8,29.86,NNW,347,5.3,16.4,46,0.00,,,0.00,WUHU216PEETBRO,2013-01-22 20:49:00,
2013-01-22 15:54:00,20.1,2.5,29.86,North,349,8.2,16.9,46,0.00,,,0.00,WUHU216PEETBRO,2013-01-22 20:54:00,
2013-01-22 15:59:00,20.5,2.7,29.86,NNW,333,3.2,16.9,46,0.00,,,0.00,WUHU216PEETBRO,2013-01-22 20:59:00,
2013-01-22 16:04:00,20.4,2.8,29.87,North,351,8.0,17.2,46,0.00,,,0.00,WUHU216PEETBRO,2013-01-22 21:04:00,
2013-01-22 16:09:00,19.7,2.1,29.87,NNW,337,9.3,17.2,46,0.00,,,0.00,WUHU216PEETBRO,2013-01-22 21:09:00,
2013-01-22 16:14:00,20.2,3.4,29.87,NNW,327,4.2,16.2,48,0.00,,,0.00,WUHU216PEETBRO,2013-01-22 21:14:00,
2013-01-22 16:19:00,20.6,4.3,29.88,NNW,335,10.7,16.2,49,0.00,,,0.00,WUHU216PEETBRO,2013-01-22 21:19:00,
2013-01-22 16:24:00,20.4,3.7,29.88,North,349,3.1,16.0,48,0.00,,,0.00,WUHU216PEETBRO,2013-01-22 21:24:00,
2013-01-22 16:29:00,20.4,4.9,29.88,NNW,344,13.9,16.0,51,0.00,,,0.00,WUHU216PEETBRO,2013-01-22 21:29:00,
2013-01-22 16:31:00,19.3,4.6,29.88,NNW,327,6.6,16.0,52,0.00,,,0.00,WUHU216PEETBRO,2013-01-22 21:31:00,
2013-01-22 16:36:00,19.8,5.7,29.88,NW,325,9.8,15.8,54,0.00,,,0.00,WUHU216PEETBRO,2013-01-22 21:36:00,
2013-01-22 16:42:00,19.7,6.6,29.89,NNW,335,4.1,15.8,56,0.00,,,0.00,WUHU216PEETBRO,2013-01-22 21:42:00,
2013-01-22 16:46:00,18.2,5.9,29.89,NNW,331,6.5,14.9,58,0.00,,,0.00,WUHU216PEETBRO,2013-01-22 21:46:00,
2013-01-22 16:52:00,18.8,6.4,29.89,NNW,344,5.3,14.1,58,0.00,,,0.00,WUHU216PEETBRO,2013-01-22 21:52:00,
2013-01-22 16:57:00,18.5,6.6,29.89,NW,321,4.2,13.9,59,0.00,,,0.00,WUHU216PEETBRO,2013-01-22 21:57:00,
2013-01-22 17:02:00,18.0,6.4,29.89,NNW,333,0.0,10.3,60,0.00,,,0.00,WUHU216PEETBRO,2013-01-22 22:02:00,
2013-01-22 17:07:00,18.2,6.7,29.90,North,349,8.1,17.0,60,0.00,,,0.00,WUHU216PEETBRO,2013-01-22 22:07:00,
2013-01-22 17:12:00,17.9,6.7,29.90,NW,325,11.1,17.0,61,0.00,,,0.00,WUHU216PEETBRO,2013-01-22 22:12:00,
2013-01-22 17:17:00,18.1,8.3,29.91,North,9,11.9,15.4,65,0.00,,,0.00,WUHU216PEETBRO,2013-01-22 22:17:00,
2013-01-22 17:22:00,18.0,8.8,29.91,NW,325,2.3,15.0,67,0.00,,,0.00,WUHU216PEETBRO,2013-01-22 22:22:00,
2013-01-22 17:27:00,17.8,10.9,29.92,NNW,341,2.6,18.6,74,0.00,,,0.00,WUHU216PEETBRO,2013-01-22 22:27:00,
2013-01-22 17:32:00,17.5,12.4,29.92,NNE,15,4.2,18.6,80,0.00,,,0.00,WUHU216PEETBRO,2013-01-22 22:32:00,
2013-01-22 17:37:00,17.1,12.4,29.92,NNE,16,3.0,13.9,81,0.00,,,0.00,WUHU216PEETBRO,2013-01-22 22:37:00,
2013-01-22 17:42:00,16.2,11.8,29.93,NNW,333,5.3,12.9,83,0.00,,,0.00,WUHU216PEETBRO,2013-01-22 22:42:00,
2013-01-22 17:47:00,16.2,12.0,29.93,North,1,7.0,11.1,83,0.00,,,0.00,WUHU216PEETBRO,2013-01-22 22:47:00,
2013-01-22 17:52:00,15.4,11.0,29.93,NNW,328,0.8,9.4,83,0.00,,,0.00,WUHU216PEETBRO,2013-01-22 22:52:00,
2013-01-22 17:57:00,15.4,11.2,29.93,NNW,338,4.7,13.6,83,0.00,,,0.00,WUHU216PEETBRO,2013-01-22 22:57:00,
2013-01-22 18:02:00,16.1,11.7,29.94,NNW,333,10.9,14.4,82,0.00,,,0.00,WUHU216PEETBRO,2013-01-22 23:02:00,
2013-01-22 18:07:00,17.0,12.4,29.94,NNW,340,0.9,14.4,82,0.00,,,0.00,WUHU216PEETBRO,2013-01-22 23:07:00,
2013-01-22 18:12:00,16.0,11.4,29.94,NNW,345,6.3,12.1,82,0.00,,,0.00,WUHU216PEETBRO,2013-01-22 23:12:00,
2013-01-22 18:17:00,16.8,12.3,29.94,NNW,341,9.3,10.7,82,0.00,,,0.00,WUHU216PEETBRO,2013-01-22 23:17:00,
2013-01-22 18:22:00,17.1,13.2,29.95,NNW,341,5.2,11.9,85,0.00,,,0.00,WUHU216PEETBRO,2013-01-22 23:22:00,
2013-01-22 18:27:00,17.4,14.1,29.95,NW,325,7.1,14.6,87,0.00,,,0.00,WUHU216PEETBRO,2013-01-22 23:27:00,
2013-01-22 18:32:00,15.7,12.3,29.95,NNW,334,8.6,14.6,86,0.00,,,0.00,WUHU216PEETBRO,2013-01-22 23:32:00,
2013-01-22 18:37:00,16.2,13.0,29.96,NW,323,6.3,17.0,87,0.00,,,0.00,WUHU216PEETBRO,2013-01-22 23:37:00,
2013-01-22 18:42:00,16.1,13.0,29.95,NNW,348,6.5,17.0,87,0.00,,,0.00,WUHU216PEETBRO,2013-01-22 23:42:00,
2013-01-22 18:47:00,16.5,13.3,29.96,North,349,8.0,15.6,87,0.00,,,0.00,WUHU216PEETBRO,2013-01-22 23:47:00,
2013-01-22 18:52:00,16.2,13.0,29.96,NNW,330,4.0,14.2,87,0.00,,,0.00,WUHU216PEETBRO,2013-01-22 23:52:00,
2013-01-22 18:58:00,15.8,12.3,29.96,NNW,335,6.1,12.9,86,0.00,,,0.00,WUHU216PEETBRO,2013-01-22 23:58:00,
2013-01-22 19:03:00,15.6,12.2,29.96,NNW,345,6.2,12.9,86,0.00,,,0.00,WUHU216PEETBRO,2013-01-23 00:03:00,
2013-01-22 19:08:00,16.2,12.6,29.96,NW,323,1.3,10.3,86,0.00,,,0.00,WUHU216PEETBRO,2013-01-23 00:08:00,
2013-01-22 19:13:00,16.0,12.0,29.97,NNW,333,5.3,11.4,84,0.00,,,0.00,WUHU216PEETBRO,2013-01-23 00:13:00,
2013-01-22 19:18:00,15.8,11.6,29.97,NW,323,0.0,11.4,83,0.00,,,0.00,WUHU216PEETBRO,2013-01-23 00:18:00,
2013-01-22 19:23:00,15.8,11.5,29.97,NNW,347,6.0,9.8,83,0.00,,,0.00,WUHU216PEETBRO,2013-01-23 00:23:00,
2013-01-22 19:28:00,15.8,11.1,29.97,NNW,334,7.0,13.0,81,0.00,,,0.00,WUHU216PEETBRO,2013-01-23 00:28:00,
2013-01-22 19:33:00,16.0,11.1,29.98,NNW,334,4.6,13.0,81,0.00,,,0.00,WUHU216PEETBRO,2013-01-23 00:33:00,
2013-01-22 19:38:00,16.1,10.9,29.98,NNW,347,5.6,11.6,80,0.00,,,0.00,WUHU216PEETBRO,2013-01-23 00:38:00,
2013-01-22 19:43:00,15.5,10.9,29.98,North,359,5.2,14.5,82,0.00,,,0.00,WUHU216PEETBRO,2013-01-23 00:43:00,
2013-01-22 19:48:00,15.9,12.4,29.98,North,1,9.3,14.5,86,0.00,,,0.00,WUHU216PEETBRO,2013-01-23 00:48:00,
2013-01-22 19:53:00,15.5,12.4,29.98,NE,37,4.2,11.2,88,0.00,,,0.00,WUHU216PEETBRO,2013-01-23 00:53:00,
2013-01-22 19:58:00,13.9,10.9,29.98,North,349,4.6,11.2,88,0.00,,,0.00,WUHU216PEETBRO,2013-01-23 00:58:00,
2013-01-22 20:03:00,14.6,11.6,29.98,North,351,7.6,10.9,88,0.00,,,0.00,WUHU216PEETBRO,2013-01-23 01:03:00,
2013-01-22 20:08:00,14.4,11.4,29.99,NNW,348,5.7,10.9,88,0.00,,,0.00,WUHU216PEETBRO,2013-01-23 01:08:00,
2013-01-22 20:13:00,14.0,11.0,29.98,North,354,3.7,9.8,88,0.00,,,0.00,WUHU216PEETBRO,2013-01-23 01:13:00,
2013-01-22 20:18:00,13.8,10.1,29.99,NNW,345,2.2,9.9,85,0.00,,,0.00,WUHU216PEETBRO,2013-01-23 01:18:00,
2013-01-22 20:23:00,13.4,9.1,29.99,NNW,327,6.8,13.9,83,0.00,,,0.00,WUHU216PEETBRO,2013-01-23 01:23:00,
2013-01-22 20:28:00,13.4,8.2,29.99,North,355,5.0,15.7,80,0.00,,,0.00,WUHU216PEETBRO,2013-01-23 01:28:00,
2013-01-22 20:33:00,14.1,8.9,29.99,NNW,340,6.2,15.7,80,0.00,,,0.00,WUHU216PEETBRO,2013-01-23 01:33:00,
2013-01-22 20:38:00,12.8,7.5,29.99,NNW,341,2.6,12.1,79,0.00,,,0.00,WUHU216PEETBRO,2013-01-23 01:38:00,
2013-01-22 20:43:00,13.1,7.9,29.99,NNW,338,4.7,11.4,79,0.00,,,0.00,WUHU216PEETBRO,2013-01-23 01:43:00,
2013-01-22 20:48:00,13.0,8.0,29.99,NW,325,4.2,11.4,80,0.00,,,0.00,WUHU216PEETBRO,2013-01-23 01:48:00,
2013-01-22 20:53:00,12.6,7.8,29.99,North,350,3.0,8.9,81,0.00,,,0.00,WUHU216PEETBRO,2013-01-23 01:53:00,
2013-01-22 20:58:00,12.6,7.8,29.99,North,352,3.1,7.1,81,0.00,,,0.00,WUHU216PEETBRO,2013-01-23 01:58:00,
2013-01-22 21:03:00,11.4,6.7,30.00,NNW,342,0.0,6.9,81,0.00,,,0.00,WUHU216PEETBRO,2013-01-23 02:03:00,
2013-01-22 21:08:00,11.8,7.2,30.00,NNW,333,2.5,6.6,82,0.00,,,0.00,WUHU216PEETBRO,2013-01-23 02:08:00,
2013-01-22 21:13:00,11.2,6.6,30.00,NW,325,0.0,6.6,82,0.00,,,0.00,WUHU216PEETBRO,2013-01-23 02:13:00,
2013-01-22 21:18:00,11.7,7.1,30.00,NNW,344,2.3,7.6,82,0.00,,,0.00,WUHU216PEETBRO,2013-01-23 02:18:00,
2013-01-22 21:23:00,11.5,7.0,30.00,North,349,4.2,10.9,82,0.00,,,0.00,WUHU216PEETBRO,2013-01-23 02:23:00,
2013-01-22 21:28:00,12.0,7.0,30.00,NW,325,6.5,10.9,80,0.00,,,0.00,WUHU216PEETBRO,2013-01-23 02:28:00,
2013-01-22 21:33:00,11.2,5.6,30.00,NNW,333,1.0,8.7,78,0.00,,,0.00,WUHU216PEETBRO,2013-01-23 02:33:00,
2013-01-22 21:38:00,11.4,5.4,30.00,NNW,333,0.0,9.7,76,0.00,,,0.00,WUHU216PEETBRO,2013-01-23 02:38:00,
2013-01-22 21:43:00,11.5,5.4,30.00,NNW,333,1.8,9.7,76,0.00,,,0.00,WUHU216PEETBRO,2013-01-23 02:43:00,
2013-01-22 21:48:00,11.7,5.7,30.00,NNW,347,5.1,8.7,76,0.00,,,0.00,WUHU216PEETBRO,2013-01-23 02:48:00,
2013-01-22 21:53:00,11.3,5.3,30.00,NNW,333,0.0,8.7,76,0.00,,,0.00,WUHU216PEETBRO,2013-01-23 02:53:00,
2013-01-22 21:58:00,10.5,4.5,30.01,NNW,341,0.0,6.2,76,0.00,,,0.00,WUHU216PEETBRO,2013-01-23 02:58:00,
2013-01-22 22:04:00,10.3,4.5,30.01,NNW,341,0.0,5.2,77,0.00,,,0.00,WUHU216PEETBRO,2013-01-23 03:04:00,
2013-01-22 22:09:00,10.0,4.3,30.01,NNW,341,0.0,0.0,77,0.00,,,0.00,WUHU216PEETBRO,2013-01-23 03:09:00,
2013-01-22 22:13:00,9.1,3.7,30.01,NNW,341,0.0,0.0,78,0.00,,,0.00,WUHU216PEETBRO,2013-01-23 03:13:00,
2013-01-22 22:19:00,8.8,3.6,30.01,NNW,341,0.0,0.0,79,0.00,,,0.00,WUHU216PEETBRO,2013-01-23 03:19:00,
2013-01-22 22:23:00,9.1,4.0,30.01,NNW,341,0.0,0.0,79,0.00,,,0.00,WUHU216PEETBRO,2013-01-23 03:23:00,
2013-01-22 22:28:00,9.0,4.1,30.01,NNW,341,0.0,0.0,80,0.00,,,0.00,WUHU216PEETBRO,2013-01-23 03:28:00,
2013-01-22 22:34:00,8.2,3.5,30.01,NNW,337,0.0,7.7,81,0.00,,,0.00,WUHU216PEETBRO,2013-01-23 03:34:00,
2013-01-22 22:38:00,8.0,3.7,30.02,NNW,337,0.0,7.7,82,0.00,,,0.00,WUHU216PEETBRO,2013-01-23 03:38:00,
2013-01-22 22:44:00,8.4,4.2,30.02,NW,323,0.0,7.6,83,0.00,,,0.00,WUHU216PEETBRO,2013-01-23 03:44:00,
2013-01-22 22:49:00,8.0,3.7,30.02,NNW,340,9.3,9.4,82,0.00,,,0.00,WUHU216PEETBRO,2013-01-23 03:49:00,
2013-01-22 22:54:00,9.1,4.1,30.02,NNW,333,2.9,10.0,80,0.00,,,0.00,WUHU216PEETBRO,2013-01-23 03:54:00,
2013-01-22 22:58:00,10.1,4.8,30.02,NW,318,0.0,10.0,79,0.00,,,0.00,WUHU216PEETBRO,2013-01-23 03:58:00,
2013-01-22 23:03:00,9.4,4.0,30.02,NNW,330,3.5,7.3,78,0.00,,,0.00,WUHU216PEETBRO,2013-01-23 04:03:00,
2013-01-22 23:09:00,9.2,3.7,30.02,NW,321,0.0,6.7,78,0.00,,,0.00,WUHU216PEETBRO,2013-01-23 04:09:00,
2013-01-22 23:14:00,9.1,3.5,30.02,NW,324,2.0,6.2,78,0.00,,,0.00,WUHU216PEETBRO,2013-01-23 04:14:00,
2013-01-22 23:19:00,9.4,3.8,30.02,NNW,328,1.4,6.8,78,0.00,,,0.00,WUHU216PEETBRO,2013-01-23 04:19:00,
2013-01-22 23:24:00,9.3,3.7,30.02,NNW,327,4.7,7.3,78,0.00,,,0.00,WUHU216PEETBRO,2013-01-23 04:24:00,
2013-01-22 23:29:00,9.5,3.8,30.02,NNW,331,3.1,8.6,77,0.00,,,0.00,WUHU216PEETBRO,2013-01-23 04:29:00,
2013-01-22 23:34:00,9.6,3.4,30.02,NNW,337,4.5,10.2,75,0.00,,,0.00,WUHU216PEETBRO,2013-01-23 04:34:00,
2013-01-22 23:39:00,9.6,2.8,30.02,NNW,338,9.0,10.2,73,0.00,,,0.00,WUHU216PEETBRO,2013-01-23 04:39:00,
2013-01-22 23:44:00,10.9,3.7,30.02,NW,325,3.1,9.1,72,0.00,,,0.00,WUHU216PEETBRO,2013-01-23 04:44:00,
2013-01-22 23:49:00,10.7,2.9,30.01,NNW,330,6.1,9.1,70,0.00,,,0.00,WUHU216PEETBRO,2013-01-23 04:49:00,
2013-01-22 23:54:00,10.1,2.4,30.01,NNW,334,6.7,9.1,70,0.00,,,0.00,WUHU216PEETBRO,2013-01-23 04:54:00,
2013-01-22 23:59:00,10.2,2.4,30.01,NNW,328,0.0,8.8,70,0.00,,,0.00,WUHU216PEETBRO,2013-01-23 04:59:00,